Location: Cornospital
(48.0620°N, 3.3837°W)
Time: 20:03:26
(UTC+00:00)

Terra - Pass Details

Date: 17 June 2021
Orbit: 701 x 703 km, 98.2° (Epoch: 03 August)

Event Time Altitude Azimuth Distance (km) Brightness Sun altitude
Exits shadow 21:49:04 16° 155° (SSE) 1,815 3.3 -11.4°
Maximum altitude 21:52:55 71° 73° (ENE) 747 1.9 -11.8°
Drops below altitude 10° 21:57:40 10° 350° (N) 2,183 5.5 -12.2°
Sets 21:59:57 0° 348° (NNW) 3,106 6.6 -12.4°
